User: anonymous   Login
Location: G�ppingen
(48.7089°N, 9.6563°E)
Time: 04:15:40
(UTC+02:00)
Language:

LilacSat-2 - Orbit

View from above orbital plane
View from above orbital plane
View from above satellite
View from above satellite

Ground track
Ground track

The orbit data is extracted from the following two-line orbital elements,

1 40908U 15049K   19287.76109954  .00000195  00000-0  14355-4 0  9995
2 40908  97.4834 286.2894 0016613 149.3735 199.6978 15.13864977224666
Epoch (UTC): 14 October 2019 18:15:59
Eccentricity: 0.0016613
inclination: 97.4834°
perigee height: 513 km
apogee height: 536 km
right ascension of ascending node: 286.2894°
argument of perigee: 149.3735°
revolutions per day: 15.13864977
mean anomaly at epoch: 199.6978°
orbit number at epoch: 22466

The dashed part of the orbit path shows where the satellite is in the earth's shadow,  

DLR